Vorticity
7 6 4 7 6 3 1 2 4 7 5 10 9 13 14 25 29 23 18 17 16 11 8 8 4 4 5 7 7 7 6 7 8 8 8 7 7 7 8 8 8 7 7 7
8 6 5 6 5 4 5 6 8 10 3 5 11 18 21 2 15 17 15 12 9 7 9 3 2 7 7 7 7 7 8 8 8 8 7 6 6 7 8 7 7 7 7 6
8 13 6 4 6 10 8 6 7 4 6 19 9 37 1 6 17 14 10 6 7 12 6 4 7 7 6 4 4 5 9 10 8 7 6 6 6 7 7 7 8 7 7 6
8 5 7 8 7 7 5 11 3 4 17 7 13 2 9 4 20 10 5 6 9 10 7 6 6 5 4 5 7 6 11 11 8 7 7 8 7 6 6 7 8 7 7 7
5 10 11 7 7 7 6 6 5 6 18 17 9 15 4 8 14 9 6 4 3 5 6 5 4 3 2 5 10 12 14 13 8 5 11 11 10 9 8 8 7 7 8 7
6 7 6 8 7 4 1 11 10 20 13 14 9 4 15 5 9 8 7 3 1 2 4 4 1 3 9 11 15 13 15 10 7 8 6 7 7 8 10 10 9 7 7 7
7 7 4 5 5 6 14 8 12 9 11 1 4 16 7 4 16 6 5 4 7 4 6 2 1 1 19 15 10 11 12 9 6 4 4 4 4 6 6 8 12 9 7 7
8 13 17 17 15 3 4 11 5 11 6 -2 11 17 13 8 -7 12 6 7 4 6 4 2 -3 -1 16 18 13 13 10 8 5 4 5 7 6 4 4 8 8 10 10 7
6 14 9 9 7 4 13 6 7 8 14 15 9 13 9 14 13 15 9 7 5 4 2 -1 -6 1 12 13 12 10 8 8 7 6 5 3 4 5 5 4 6 9 10 9
12 11 16 15 13 11 4 5 5 11 10 11 14 12 -7 0 11 19 11 6 4 2 -2 -2 -2 8 14 6 3 2 2 2 2 1 2 3 3 7 10 11 10 8 10 10
1 11 5 2 14 10 17 5 9 6 3 7 5 22 6 -4 11 13 9 6 5 5 4 3 10 15 11 5 6 7 7 6 6 7 7 1 4 10 9 6 10 13 12 11
5 8 7 3 6 7 4 3 5 2 18 3 4 13 18 9 19 4 3 5 5 2 -1 9 13 8 4 0 -1 -2 8 11 11 7 6 2 11 12 8 10 10 10 11 14
7 7 13 18 24 23 24 25 11 3 -5 13 -2 4 3 11 3 -1 -3 -2 -1 2 2 16 13 4 7 3 1 -2 16 18 20 15 12 13 12 8 11 6 9 9 9 11
7 12 1 -21 -13 -16 -17 -12 -7 11 -4 -4 -30 -22 -24 -14 -13 3 -7 -8 2 16 26 11 5 6 1 1 -14 4 16 11 12 14 14 13 14 11 10 12 12 10 9 9
13 8 9 9 9 10 7 7 9 2 9 -5 2 -3 4 26 10 -2 -3 2 8 6 7 13 12 3 5 -4 -7 12 15 11 12 11 11 11 13 13 11 11 13 13 11 9
5 11 -1 5 25 32 13 12 9 11 14 6 13 16 47 40 32 29 22 23 4 17 5 4 0 -1 -5 2 6 21 11 12 12 11 11 10 9 10 10 12 12 13 14 10
8 14 -0 24 7 -0 44 43 31 27 16 21 26 14 19 4 8 8 13 9 8 1 1 -2 -1 5 21 24 18 12 13 14 13 11 11 12 12 12 14 14 14 13 11 17
-1 4 17 1 30 19 -1 -5 -8 6 16 9 19 12 -5 1 10 9 5 4 -5 -4 1 11 25 13 5 6 11 15 16 14 12 11 11 12 11 12 11 12 13 14 14 13
23 14 -2 2 6 -14 26 37 32 7 -4 7 11 -4 1 17 12 11 -4 -6 -6 -4 12 13 7 10 12 15 16 16 13 13 13 11 11 12 13 14 15 15 14 12 13 17
16 18 -7 18 10 -2 -9 -14 -11 8 5 30 29 23 12 6 3 -5 -9 -15 -1 17 10 13 13 12 14 13 13 13 11 10 11 9 9 9 10 11 12 15 18 20 17 15
18 16 6 4 -14 13 17 15 22 24 -6 12 13 9 4 -2 -8 -7 1 7 31 -1 15 11 15 17 17 15 15 14 11 9 8 8 10 13 15 16 17 18 16 12 15 20
10 10 11 45 8 13 35 26 13 6 7 2 -3 -9 -14 -7 2 4 17 14 -2 7 11 13 14 14 13 10 11 9 8 7 8 9 11 11 9 4 3 7 5 15 19 9
15 9 -8 -16 -17 -23 -19 14 7 -4 -1 1 1 7 7 8 21 11 3 1 3 15 19 20 14 13 10 6 1 4 9 10 7 6 5 5 3 3 1 3 2 8 4 13
26 6 -9 14 11 20 16 16 18 -0 -6 0 14 -4 -3 0 3 5 6 7 22 18 20 9 12 11 8 4 8 14 8 8 1 1 6 4 4 6 4 3 8 6 8 12
-4 2 -4 3 4 2 4 4 -4 -4 4 10 -0 22 19 9 5 19 22 11 25 18 12 13 10 8 13 24 26 19 17 16 24 20 17 12 12 11 9 3 1 1 3 8
23 24 27 4 18 21 17 17 17 12 2 19 12 -1 3 14 19 2 12 24 19 20 13 12 16 17 12 4 -1 -3 2 4 7 8 7 5 6 3 2 5 7 6 8 4
Height
3142 3144 3148 3148 3147 3150 3150 3147 3147 3147 3146 3144 3142 3139 3136 3133 3131 3129 3130 3131 3132 3132 3133 3133 3133 3133 3132 3131 3130 3128 3125 3123 3121 3119 3116 3114 3110 3107 3104 3101 3098 3094 3090 3086
3142 3143 3146 3146 3145 3148 3148 3145 3145 3145 3142 3141 3138 3135 3132 3131 3129 3128 3128 3130 3131 3132 3132 3132 3132 3132 3131 3129 3127 3125 3122 3120 3118 3115 3113 3110 3108 3104 3101 3097 3094 3091 3086 3081
3140 3144 3143 3144 3145 3147 3144 3143 3142 3141 3138 3137 3134 3131 3130 3129 3127 3127 3128 3129 3130 3130 3131 3132 3131 3130 3129 3127 3124 3122 3119 3116 3114 3112 3110 3107 3104 3101 3098 3094 3090 3086 3082 3078
3140 3142 3143 3143 3144 3144 3140 3141 3140 3137 3137 3136 3133 3131 3129 3129 3127 3127 3127 3127 3128 3129 3129 3129 3129 3128 3126 3123 3121 3118 3115 3113 3111 3109 3107 3104 3101 3098 3094 3092 3088 3083 3079 3074
3141 3140 3140 3141 3141 3140 3140 3139 3136 3135 3134 3132 3131 3132 3128 3127 3127 3126 3126 3127 3128 3127 3127 3127 3126 3125 3123 3120 3117 3114 3112 3110 3109 3106 3103 3100 3098 3094 3091 3088 3084 3079 3075 3071
3138 3138 3139 3138 3138 3137 3136 3136 3135 3133 3131 3131 3130 3132 3127 3127 3126 3124 3125 3126 3126 3126 3125 3125 3124 3123 3120 3116 3114 3112 3109 3107 3105 3103 3100 3097 3094 3091 3087 3083 3079 3075 3071 3067
3136 3136 3136 3136 3136 3136 3136 3136 3134 3136 3134 3134 3131 3131 3125 3124 3123 3124 3125 3125 3124 3123 3123 3123 3121 3119 3115 3112 3110 3108 3106 3103 3101 3098 3095 3093 3090 3086 3082 3077 3074 3070 3067 3064
3134 3135 3134 3134 3135 3135 3134 3135 3135 3140 3140 3132 3129 3124 3122 3122 3122 3122 3121 3120 3121 3121 3120 3119 3117 3115 3112 3109 3107 3104 3101 3099 3097 3094 3091 3088 3084 3081 3076 3072 3069 3065 3061 3058
3134 3133 3132 3132 3132 3135 3133 3134 3136 3135 3134 3132 3123 3121 3120 3119 3119 3118 3117 3118 3118 3118 3117 3116 3114 3112 3109 3106 3103 3100 3097 3095 3092 3089 3086 3082 3078 3074 3071 3066 3062 3059 3055 3053
3132 3132 3130 3130 3131 3132 3132 3135 3135 3134 3133 3132 3120 3118 3117 3117 3117 3116 3115 3115 3116 3115 3114 3113 3111 3109 3106 3102 3099 3096 3093 3090 3087 3083 3079 3076 3072 3068 3064 3060 3056 3052 3048 3046
3130 3131 3131 3129 3129 3129 3131 3131 3131 3132 3130 3129 3127 3117 3115 3115 3115 3114 3113 3113 3113 3112 3111 3109 3107 3104 3100 3098 3095 3093 3088 3084 3080 3077 3073 3069 3065 3060 3056 3052 3048 3045 3042 3039
3129 3128 3128 3128 3128 3128 3128 3129 3129 3128 3127 3125 3124 3116 3113 3113 3113 3110 3109 3109 3109 3108 3106 3104 3101 3098 3096 3094 3091 3087 3082 3077 3072 3069 3065 3061 3057 3052 3048 3044 3040 3036 3034 3032
3128 3128 3127 3126 3127 3125 3125 3125 3126 3125 3124 3121 3122 3113 3112 3110 3108 3108 3107 3104 3104 3103 3100 3098 3096 3093 3090 3087 3084 3080 3074 3068 3064 3060 3055 3051 3047 3042 3038 3034 3031 3028 3025 3023
3127 3125 3125 3124 3123 3123 3122 3122 3122 3122 3119 3114 3109 3110 3111 3107 3106 3104 3102 3102 3100 3097 3094 3092 3089 3087 3084 3081 3076 3071 3066 3060 3055 3051 3046 3042 3038 3033 3029 3026 3022 3019 3017 3015
3124 3122 3121 3120 3119 3117 3114 3113 3113 3110 3109 3107 3102 3101 3105 3104 3102 3098 3097 3096 3094 3093 3090 3087 3084 3080 3076 3072 3068 3062 3057 3052 3047 3043 3038 3033 3029 3025 3021 3017 3014 3010 3008 3006
3120 3118 3116 3112 3113 3110 3105 3104 3102 3101 3099 3096 3096 3090 3096 3095 3093 3093 3092 3089 3088 3087 3084 3081 3078 3074 3067 3061 3057 3053 3048 3043 3038 3034 3029 3024 3020 3017 3012 3008 3004 3001 2998 2996
3116 3115 3113 3108 3107 3105 3099 3094 3094 3094 3092 3092 3089 3089 3088 3088 3087 3086 3086 3084 3083 3080 3076 3072 3069 3065 3058 3052 3049 3046 3040 3034 3030 3025 3020 3015 3010 3007 3003 3000 2996 2992 2989 2986
3111 3111 3111 3106 3104 3103 3093 3091 3090 3088 3087 3086 3084 3084 3084 3083 3083 3082 3079 3078 3075 3071 3066 3062 3058 3054 3049 3043 3039 3035 3031 3027 3022 3018 3013 3008 3003 2999 2995 2991 2986 2983 2979 2976
3106 3107 3107 3105 3102 3095 3089 3086 3085 3082 3083 3081 3080 3080 3079 3079 3077 3076 3074 3071 3066 3063 3058 3052 3048 3042 3037 3033 3030 3026 3023 3018 3014 3010 3006 3001 2995 2991 2987 2983 2978 2973 2969 2966
3100 3101 3103 3101 3100 3093 3084 3082 3081 3079 3076 3075 3075 3075 3074 3071 3069 3071 3068 3064 3060 3055 3049 3043 3040 3035 3029 3025 3022 3018 3015 3011 3007 3002 2998 2993 2988 2983 2979 2974 2970 2966 2961 2958
3097 3096 3095 3094 3092 3083 3078 3077 3075 3076 3075 3070 3070 3069 3067 3065 3064 3060 3059 3057 3052 3045 3040 3035 3030 3026 3021 3017 3014 3011 3008 3004 3000 2996 2992 2988 2983 2978 2973 2969 2963 2959 2955 2950
3092 3091 3089 3088 3087 3078 3072 3072 3074 3071 3067 3065 3063 3062 3060 3057 3052 3049 3046 3042 3039 3037 3032 3025 3021 3019 3015 3010 3006 3004 3000 2996 2993 2989 2985 2981 2977 2972 2967 2963 2958 2953 2947 2943
3087 3086 3084 3082 3074 3069 3068 3066 3065 3063 3059 3057 3055 3052 3049 3047 3044 3040 3037 3033 3029 3025 3021 3016 3013 3011 3009 3004 2999 2996 2993 2989 2986 2982 2978 2974 2971 2966 2962 2956 2952 2948 2942 2937
3077 3078 3073 3069 3067 3067 3063 3062 3059 3056 3052 3048 3045 3043 3040 3037 3034 3030 3027 3023 3019 3016 3011 3006 3004 3002 3000 2998 2994 2989 2984 2980 2977 2974 2971 2967 2962 2958 2955 2951 2946 2941 2936 2931
3071 3069 3064 3059 3059 3059 3058 3056 3053 3048 3042 3039 3035 3032 3030 3026 3023 3019 3015 3013 3009 3005 3002 2998 2995 2993 2991 2988 2985 2982 2977 2972 2968 2964 2961 2957 2952 2948 2945 2941 2937 2933 2930 2923
3061 3057 3054 3046 3053 3049 3043 3042 3039 3035 3032 3029 3025 3022 3019 3015 3011 3007 3004 3000 2996 2995 2993 2990 2987 2984 2983 2979 2976 2973 2969 2964 2960 2956 2952 2947 2943 2939 2934 2929 2926 2925 2920 2916